Tracking 25744 objects as of 24-Jun-2022
HD Live streaming from Space Station
objects crossing your sky now

SL-3 DEB

Track SL-3 DEB now!
10-day predictions


NORAD ID: 20348
Int'l Code: 1972-049C
Perigee: 859.0 km
Apogee: 930.6 km
Inclination: 81.2 °
Period: 102.7 minutes
Semi major axis: 7265 km
RCS: 0.0122 m2 (small)
Launch date: June 30, 1972
Source: Commonwealth of Independent States (former USSR) (CIS)
Launch site: PLESETSK MISSILE AND SPACE COMPLEX (PKMTR)

Note: This is SATELLITE DEBRIS
aabbcc
Your satellite tracking list
Your tracking list is empty




NASA's NSSDC Master Catalog

Two Line Element Set (TLE):
1 20348U 72049C   22175.51369425  .00000122  00000-0  71400-4 0  9992
2 20348  81.2394  17.5396 0049229 128.2706 232.2905 14.01768756554326
Source of the keplerian elements: AFSPC